FW8688 Weather Reports


Display with metric or nautical units.
time (UTC)temp
F
wind
direction
speed
MPH
gust
MPH
rain 1hr
in
rain 24hr
in
rain mn
in
humidity
%
barometer
mb
20260504012306 74 4 4.0 7.0 0.00 0.00 0.00 17 1006.2
20260504011805 74 350 4.0 8.0 0.00 0.00 0.00 16 1006.3
20260504011305 74 344 4.0 6.0 0.00 0.00 0.00 16 1006.3
20260504010806 74 332 2.0 3.0 0.00 0.00 0.00 15 1006.4
20260504010305 74 271 4.0 6.0 0.00 0.00 0.00 15 1006.5
20260504005805 74 246 4.0 8.0 0.00 0.00 0.00 15 1006.6
20260504005306 74 246 5.0 8.0 0.00 0.00 0.00 16 1006.6
20260504004805 74 228 4.0 7.0 0.00 0.00 0.00 16 1006.7
20260504004305 75 242 5.0 7.0 0.00 0.00 0.00 16 1006.7
20260504003806 75 240 5.0 6.0 0.00 0.00 0.00 16 1006.7
20260504003305 75 224 1.0 5.0 0.00 0.00 0.00 15 1006.6
20260504002806 74 220 3.0 3.0 0.00 0.00 0.00 15 1006.7
20260504002305 75 225 5.0 7.0 0.00 0.00 0.00 15 1006.9
20260504001805 75 233 3.0 7.0 0.00 0.00 0.00 15 1006.9
20260504000805 75 191 3.0 7.0 0.00 0.00 0.00 15 1006.8
20260504000305 75 224 5.0 8.0 0.00 0.00 0.00 15 1006.8
20260503235805 76 225 6.0 8.0 0.00 0.00 0.00 14 1006.8
20260503234805 76 185 3.0 5.0 0.00 0.00 0.00 15 1006.8
20260503234305 76 189 3.0 6.0 0.00 0.00 0.00 14 1006.8
20260503233805 77 172 1.0 3.0 0.00 0.00 0.00 13 1007.0
20260503233305 76 99 1.0 3.0 0.00 0.00 0.00 13 1007.0
20260503232805 77 122 1.0 2.0 0.00 0.00 0.00 13 1007.0
20260503232306 76 140 1.0 2.0 0.00 0.00 0.00 13 1007.2
20260503231805 76 130 0.0 1.0 0.00 0.00 0.00 13 1007.2
20260503231305 76 149 1.0 5.0 0.00 0.00 0.00 13 1007.2
20260503230806 76 138 2.0 5.0 0.00 0.00 0.00 14 1007.2
20260503230305 75 121 1.0 5.0 0.00 0.00 0.00 13 1007.2
20260503225805 76 96 3.0 7.0 0.00 0.00 0.00 13 1007.2
20260503225305 76 143 3.0 8.0 0.00 0.00 0.00 13 1007.2
20260503224805 76 131 3.0 9.0 0.00 0.00 0.00 13 1007.4
20260503224305 76 79 3.0 7.0 0.00 0.00 0.00 14 1007.5
20260503223805 76 151 3.0 5.0 0.00 0.00 0.00 13 1007.6
20260503223305 76 158 3.0 7.0 0.00 0.00 0.00 13 1007.6
20260503222805 76 116 3.0 7.0 0.00 0.00 0.00 13 1007.6
20260503222305 76 123 1.0 3.0 0.00 0.00 0.00 13 1008.0
20260503221805 76 134 2.0 5.0 0.00 0.00 0.00 13 1008.0
20260503221305 75 109 2.0 6.0 0.00 0.00 0.00 13 1008.0
20260503220805 75 95 6.0 10.0 0.00 0.00 0.00 13 1008.0
20260503215805 76 89 5.0 7.0 0.00 0.00 0.00 13 1008.5
20260503215305 75 115 5.0 9.0 0.00 0.00 0.00 12 1008.5
20260503214805 75 90 3.0 9.0 0.00 0.00 0.00 13 1008.5
20260503214305 75 125 5.0 8.0 0.00 0.00 0.00 13 1008.5
20260503213805 76 135 6.0 10.0 0.00 0.00 0.00 12 1008.8
20260503213306 76 112 3.0 6.0 0.00 0.00 0.00 13 1008.8
20260503212805 75 93 2.0 7.0 0.00 0.00 0.00 13 1008.8
20260503212305 75 133 4.0 9.0 0.00 0.00 0.00 12 1009.2
20260503211805 75 78 6.0 12.0 0.00 0.00 0.00 12 1009.2
20260503210805 75 122 6.0 9.0 0.00 0.00 0.00 14 1009.6
20260503210305 74 151 3.0 7.0 0.00 0.00 0.00 17 1009.6
20260503205805 74 123 4.0 9.0 0.00 0.00 0.00 17 1009.6
20260503205305 74 149 5.0 8.0 0.00 0.00 0.00 16 1009.9
20260503204805 73 129 2.0 7.0 0.00 0.00 0.00 19 1009.9
20260503204304 73 157 3.0 8.0 0.00 0.00 0.00 18 1009.9
20260503203305 73 157 3.0 6.0 0.00 0.00 0.00 19 1010.5
20260503202805 73 164 5.0 7.0 0.00 0.00 0.00 19 1010.5
20260503202305 73 187 5.0 9.0 0.00 0.00 0.00 18 1010.5
20260503201805 73 152 4.0 8.0 0.00 0.00 0.00 18 1010.5
20260503201305 73 158 5.0 7.0 0.00 0.00 0.00 17 1010.6
20260503200305 72 178 5.0 9.0 0.00 0.00 0.00 19 1010.5
20260503195805 73 181 5.0 9.0 0.00 0.00 0.00 18 1010.9
20260503195305 73 184 5.0 8.0 0.00 0.00 0.00 19 1010.9
20260503194805 73 177 5.0 10.0 0.00 0.00 0.00 19 1010.9
20260503193805 72 151 3.0 8.0 0.00 0.00 0.00 20 1011.0
20260503193305 73 174 6.0 9.0 0.00 0.00 0.00 17 1011.0
20260503192305 74 136 5.0 8.0 0.00 0.00 0.00 19 1011.3
20260503191804 74 146 6.0 8.0 0.00 0.00 0.00 18 1011.3
20260503191305 74 114 4.0 8.0 0.00 0.00 0.00 19 1011.3
20260503190805 74 129 5.0 9.0 0.00 0.00 0.00 18 1011.6
20260503190305 73 142 5.0 10.0 0.00 0.00 0.00 18 1011.6
20260503185805 73 154 3.0 7.0 0.00 0.00 0.00 21 1011.7
20260503185305 72 134 4.0 9.0 0.00 0.00 0.00 19 1011.7
20260503184805 71 143 4.0 6.0 0.00 0.00 0.00 21 1011.7
20260503184305 71 139 3.0 6.0 0.00 0.00 0.00 21 1011.9
20260503183805 70 158 3.0 5.0 0.00 0.00 0.00 24 1011.9
20260503183304 69 163 5.0 6.0 0.00 0.00 0.00 23 1012.1
20260503182805 68 175 4.0 6.0 0.00 0.00 0.00 24 1012.2
20260503182306 68 172 3.0 5.0 0.00 0.00 0.00 26 1012.3
20260503181805 68 146 3.0 6.0 0.00 0.00 0.00 25 1012.3
20260503181305 68 172 4.0 7.0 0.00 0.00 0.00 23 1012.4
20260503180804 68 181 3.0 5.0 0.00 0.00 0.00 24 1012.7
20260503180304 67 196 4.0 7.0 0.00 0.00 0.00 23 1012.7
20260503175805 68 175 5.0 7.0 0.00 0.00 0.00 24 1012.7
20260503175305 68 175 3.0 7.0 0.00 0.00 0.00 25 1012.7
20260503174805 67 141 2.0 7.0 0.00 0.00 0.00 26 1012.7
20260503174305 66 140 3.0 6.0 0.00 0.00 0.00 26 1012.7
20260503173305 67 168 5.0 7.0 0.00 0.00 0.00 25 1012.9
20260503172805 66 149 4.0 7.0 0.00 0.00 0.00 26 1012.9
20260503172305 65 161 5.0 7.0 0.00 0.00 0.00 26 1012.9
20260503171805 65 177 5.0 8.0 0.00 0.00 0.00 26 1013.0
20260503171305 66 179 5.0 7.0 0.00 0.00 0.00 25 1013.0
20260503170804 66 152 3.0 7.0 0.00 0.00 0.00 26 1013.0
20260503170306 66 171 3.0 7.0 0.00 0.00 0.00 27 1013.1
20260503150805 58 173 0.0 0.0 0.00 0.00 0.00 47 1014.1
20260503150304 57 173 0.0 0.0 0.00 0.00 0.00 47 1014.1
20260503140304 51 108 3.0 5.0 0.00 0.00 0.00 52 1013.7
20260503131305 47 165 0.0 0.0 0.00 0.00 0.00 60 1013.3
20260503130805 47 171 0.0 0.0 0.00 0.00 0.00 59 1013.3
20260503130304 46 171 0.0 0.0 0.00 0.00 0.00 59 1013.3
20260503110804 48 159 0.0 0.0 0.00 0.00 0.00 52 1013.4
20260503110305 48 159 0.0 0.0 0.00 0.00 0.00 51 1013.5
20260503090305 53 61 0.0 0.0 0.00 0.00 0.00 40 1013.2
20260503081304 55 55 0.0 0.0 0.00 0.00 0.00 33 1013.5
20260503080805 55 55 0.0 0.0 0.00 0.00 0.00 32 1013.5
20260503080304 55 55 0.0 0.0 0.00 0.00 0.00 33 1013.5
20260503072805 57 70 2.0 3.0 0.00 0.00 0.00 30 1013.5
20260503072305 57 75 3.0 3.0 0.00 0.00 0.00 30 1013.4
20260503071804 57 104 2.0 3.0 0.00 0.00 0.00 30 1013.4
20260503071304 57 93 2.0 3.0 0.00 0.00 0.00 30 1013.4
20260503070805 57 75 2.0 5.0 0.00 0.00 0.00 29 1013.4
20260503070305 57 78 2.0 5.0 0.00 0.00 0.00 29 1013.4
20260503060305 59 45 2.0 5.0 0.00 0.00 0.00 28 1013.1
20260503054805 60 29 2.0 3.0 0.00 0.00 0.00 28 1012.9
20260503053805 61 23 2.0 7.0 0.00 0.00 0.00 28 1012.9
20260503053305 61 69 5.0 7.0 0.00 0.00 0.00 27 1012.9
20260503052805 61 78 1.0 5.0 0.00 0.00 0.00 28 1013.0
20260503052305 61 84 0.0 2.0 0.00 0.00 0.00 29 1013.0
20260503051304 61 61 2.0 3.0 0.00 0.00 0.00 31 1012.7
20260503050804 61 340 2.0 5.0 0.00 0.00 0.00 31 1012.7
20260503050304 61 338 3.0 6.0 0.00 0.00 0.00 31 1012.7
20260503045805 61 333 2.0 5.0 0.00 0.00 0.00 30 1012.7
20260503044804 62 342 3.0 5.0 0.00 0.00 0.00 30 1012.7
20260503044305 62 329 3.0 6.0 0.00 0.00 0.00 29 1012.8
20260503043804 62 343 3.0 5.0 0.00 0.00 0.00 29 1012.7
20260503043305 63 338 2.0 5.0 0.00 0.00 0.00 29 1013.1
20260503042805 63 342 3.0 7.0 0.00 0.00 0.00 28 1013.1
20260503040804 63 343 4.0 8.0 0.00 0.00 0.00 28 1013.0
20260503040305 63 353 3.0 7.0 0.00 0.00 0.00 27 1013.0
20260503035804 63 344 4.0 7.0 0.00 0.00 0.00 27 1013.0
20260503035305 64 350 6.0 8.0 0.00 0.00 0.00 27 1012.7
20260503034804 64 319 5.0 10.0 0.00 0.00 0.00 27 1012.7
20260503033804 64 345 5.0 9.0 0.00 0.00 0.00 27 1012.6
20260503033305 64 343 4.0 8.0 0.00 0.00 0.00 26 1012.5
20260503031304 65 349 5.0 9.0 0.00 0.00 0.00 26 1012.5
20260503030805 65 342 5.0 8.0 0.00 0.00 0.00 26 1012.4
20260503030305 65 352 6.0 9.0 0.00 0.00 0.00 26 1012.4
20260503025305 66 350 6.0 9.0 0.00 0.00 0.00 25 1012.2
20260503024805 66 347 6.0 9.0 0.00 0.00 0.00 25 1012.2
20260503024304 66 346 6.0 9.0 0.00 0.00 0.00 24 1012.3
20260503023804 67 357 6.0 7.0 0.00 0.00 0.00 24 1012.3
20260503023304 67 338 3.0 5.0 0.00 0.00 0.00 24 1012.4
20260503022805 68 345 3.0 6.0 0.00 0.00 0.00 24 1012.4
20260503021804 68 319 5.0 9.0 0.00 0.00 0.00 23 1012.4
20260503021304 68 312 5.0 10.0 0.00 0.00 0.00 22 1012.4
20260503020305 69 348 4.0 8.0 0.00 0.00 0.00 22 1012.3
20260503015805 70 323 4.0 10.0 0.00 0.00 0.00 22 1012.3
20260503015305 70 306 5.0 7.0 0.00 0.00 0.00 20 1012.3
20260503014804 71 321 5.0 8.0 0.00 0.00 0.00 19 1012.4
20260503014304 71 346 3.0 3.0 0.00 0.00 0.00 18 1012.2
20260503013804 71 302 0.0 3.0 0.00 0.00 0.00 18 1012.2
20260503013304 71 319 1.0 2.0 0.00 0.00 0.00 17 1012.2
20260503012804 71 226 1.0 3.0 0.00 0.00 0.00 16 1012.2